Location: T�bingen+AIT
(48.5342°N, 9.0700°E)
Time: 20:29:16
(UTC+02:00)

Cosmos 1378 - Pass Details

Date: 14 September 2017
Orbit: 497 x 506 km, 82.5° (Epoch: 19 September)

Event Time Altitude Azimuth Distance (km) Brightness Sun altitude
Rises 20:30:06 0° 359° (N) 2,615 7.0 -9.2°
Reaches altitude 10° 20:32:27 10° 11° (N) 1,727 5.9 -9.6°
Maximum altitude 20:35:46 29° 73° (ENE) 960 4.1 -10.2°
Enters shadow 20:38:28 14° 129° (SE) 1,508 5.0 -10.6°
